Hourly Data Report for October 17, 2015

All times are specified in Local Standard Time (LST). Add 1 hour to adjust for Daylight Saving Time where and when it is observed.

ARVIAT A
NUNAVUT

61°05'38.000" N
94°04'18.000" W
10.40 m
2300427
71174
YEK

Download Data

Hourly Data (October 2015)
Hourly Data Report for October 17, 2015
Temp Definition
°C
Dew Point Temp Definition
°C
Rel Hum Definition
%
Wind Dir Definition
10's deg

Wind Spd Definition
km/h
Visibility Definition
km
Stn Press Definition
kPa
Hmdx Definition


Wind Chill Definition


Weather Definition


TIME
00:00 Legend Double Dagger -9.8 -10.5 95 30 21 16.1 102.24   -18 LegendNANA
01:00 Legend Double Dagger -9.4 -9.6 99 29 15 16.1 102.22   -16 LegendNANA
02:00 Legend Double Dagger -9.4 -9.8 97 22 8 16.1 102.17   -14 LegendNANA
03:00 Legend Double Dagger -8.4 -8.8 97 24 11 16.1 102.15   -14 LegendNANA
04:00 Legend Double Dagger -6.8 -7.2 97 25 15 16.1 102.10   -13 LegendNANA
05:00 Legend Double Dagger -5.8 -6.3 96 23 13 16.1 102.04   -11 Snow
06:00 Legend Double Dagger -5.7 -6.2 96 22 15 16.1 102.00   -11 LegendNANA
07:00 Legend Double Dagger -5.2 -5.7 96 22 17 16.1 101.96   -11 Snow
08:00 Legend Double Dagger -4.5 -4.8 98 24 15 6.4 101.92   -10 Snow
09:00 Legend Double Dagger -4.4 -4.5 99 26 11 4.8 101.89   -9 Snow
10:00 Legend Double Dagger -3.5 -3.8 98 31 11 16.1 101.86   -8 Snow
11:00 Legend Double Dagger -5.7 -6.2 96 33 15 16.1 101.85   -11 LegendNANA
12:00 Legend Double Dagger -4.5 -5.2 95 34 13 16.1 101.85   -10 LegendNANA
13:00 Legend Double Dagger -2.7 -3.5 94 36 17 16.1 101.83   -8 LegendNANA
14:00 Legend Double Dagger -3.0 -4.1 92 36 15 16.1 101.82   -8 LegendNANA
15:00 Legend Double Dagger -3.1 -4.2 92 36 13 16.1 101.84   -8 LegendNANA
16:00 Legend Double Dagger -4.2 -5.0 95 36 13 16.1 101.81   -9 LegendNANA
17:00 Legend Double Dagger -6.4 -6.6 99 36 13 16.1 101.80   -12 LegendNANA
18:00 Legend Double Dagger -6.0 -6.0 100 36 9 0.8 101.79   -10 Freezing Fog
19:00 Legend Double Dagger -6.1 -6.1 100 2 8 1.2 101.73   -10 Freezing Rain,Snow
20:00 Legend Double Dagger -5.4 -5.4 100 2 8 1.0 101.65   -9 Freezing Rain,Fog
21:00 Legend Double Dagger -5.6 -5.6 100   0 1.2 101.58     Snow
22:00 Legend Double Dagger -7.2 -7.5 98   0 0.8 101.45     Freezing Fog
23:00 Legend Double Dagger -7.7 -8.1 97 4 5 1.0 101.39   -10 Fog

Notes on Data Quality.

Legend

  • E = Estimated
  • M = Missing
  • NA = Not Available
  • ‡ = Partner data that is not subject to review by the National Climate Archives
Date modified: